Shelbyville, IN

8:03 PM EST on December 05, 2019 (GMT -0500)
Shelbyville Municipal

Weather History for KGEZ - October, 2019

Change the Weather History Date:

Thursday, October 24, 2019

  Actual Average Record
Temperature  
Mean Temperature 56 °F 52 °F  
Max Temperature 62 °F 63 °F 79 °F (2012)
Min Temperature 49 °F 40 °F 28 °F (2006)
Degree Days  
Heating Degree Days 9 14  
Month to date heating degree days 183 249  
Since 1 July heating degree days 186 334  
Cooling Degree Days 0 0  
Month to date cooling degree days 36 11  
Year to date cooling degree days 1330 910  
Growing Degree Days 6 (Base 50)    
Moisture  
Dew Point 41 °F    
Average Humidity 61    
Maximum Humidity 71    
Minimum Humidity 50    
Precipitation  
Precipitation T in 0.10 in 1.02 in (2001)
Month to date precipitation 1.86 2.48  
Year to date precipitation 34.07 35.93  
Sea Level Pressure  
Sea Level Pressure 30.21 in    
Wind  
Wind Speed 7 mph (WSW)    
Max Wind Speed 15 mph    
Max Gust Speed 20 mph    
Visibility 10 miles    
Events Rain    
T = Trace of Precipitation, MM = Missing Value Source: NWS Daily Summary

Daily Weather History Graph

Daily Weather History Graph

Search for Another Location

Airport or City:

Astronomy

Oct. 24, 2019 Rise Set
Actual Time 8:02 AM EDT 6:51 PM EDT
Civil Twilight 7:35 AM EDT 7:19 PM EDT
Nautical Twilight 7:03 AM EDT 7:50 PM EDT
Astronomical Twilight 6:32 AM EDT 8:21 PM EDT
Moon 3:33 AM EDT (10/24) 5:17 PM EDT (10/24)
Length of Visible Light 11h 44m
Length of Day
10h 49m
Waning Crescent, 17% of the Moon is Illuminated
Oct 24
Waning Crescent
Oct 27
New
Nov 4
First Quarter
Nov 12
Full
Nov 19
Last Quarter

Hourly Weather History & Observations

Time (EDT) Temp. Dew Point Humidity Pressure Visibility Wind Dir Wind Speed Gust Speed Precip Events Conditions
12:53 AM 51.1 °F 35.1 °F 54% 30.11 in 10.0 mi South 10.4 mph - N/A   Clear
1:53 AM 53.1 °F 35.1 °F 50% 30.11 in 10.0 mi South 12.7 mph - N/A   Clear
2:53 AM 52.0 °F 36.0 °F 54% 30.12 in 10.0 mi South 10.4 mph - N/A   Clear
3:53 AM 50.0 °F 36.0 °F 59% 30.12 in 10.0 mi South 11.5 mph - N/A   Clear
4:53 AM 51.1 °F 36.0 °F 56% 30.13 in 10.0 mi South 9.2 mph - N/A   Overcast
5:53 AM 51.1 °F 37.0 °F 59% 30.14 in 10.0 mi South 6.9 mph - N/A   Overcast
6:53 AM 50.0 °F 36.0 °F 59% 30.16 in 10.0 mi South 9.2 mph - N/A   Scattered Clouds
7:53 AM 50.0 °F 36.0 °F 59% 30.17 in 10.0 mi South 8.1 mph - N/A   Overcast
8:53 AM 51.1 °F 37.0 °F 59% 30.19 in 10.0 mi South 8.1 mph - N/A   Overcast
9:53 AM 53.1 °F 39.0 °F 59% 30.22 in 10.0 mi South 6.9 mph - N/A   Overcast
10:53 AM 55.0 °F 39.9 °F 57% 30.24 in 10.0 mi SSW 5.8 mph - N/A   Overcast
11:53 AM 57.9 °F 42.1 °F 56% 30.26 in 10.0 mi Variable 5.8 mph - N/A   Overcast
1:53 PM 57.9 °F 44.1 °F 60% 30.24 in 10.0 mi NW 4.6 mph - N/A   Overcast
2:53 PM 59.0 °F 45.0 °F 60% 30.23 in 10.0 mi NW 6.9 mph - N/A   Mostly Cloudy
3:53 PM 61.0 °F 45.0 °F 56% 30.24 in 10.0 mi NW 5.8 mph - N/A   Clear
4:53 PM 59.0 °F 45.0 °F 60% 30.24 in 10.0 mi North 5.8 mph - N/A   Clear
5:53 PM 59.0 °F 44.1 °F 58% 30.25 in 10.0 mi Calm Calm - N/A   Mostly Cloudy
6:53 PM 57.0 °F 45.0 °F 64% 30.26 in 10.0 mi NNW 6.9 mph - N/A   Mostly Cloudy
7:53 PM 53.1 °F 46.9 °F 80% 30.27 in 10.0 mi NNW 5.8 mph - 0.00 in Rain Light Rain
8:53 PM 53.1 °F 45.0 °F 74% 30.28 in 10.0 mi North 4.6 mph - 0.00 in   Overcast
9:53 PM 53.1 °F 44.1 °F 71% 30.29 in 10.0 mi North 5.8 mph - N/A   Overcast
10:53 PM 52.0 °F 43.0 °F 71% 30.29 in 10.0 mi NE 4.6 mph - N/A   Overcast
11:53 PM 51.1 °F 43.0 °F 74% 30.30 in 10.0 mi North 3.5 mph - N/A   Overcast